Location: Jackson Park
(37.2862°N, 79.9123°W)
Time: 19:59:58
(UTC+00:00)

Vanguard 2 Rocket - Pass Details

Date: 13 May 2026
Orbit: 553 x 3286 km, 32.9° (Epoch: 6 June)

Event Time Altitude Azimuth Distance (km) Brightness Sun altitude
Rises 15:17:36 0° 221° (SW) 4,928 10.6 58.0°
Reaches altitude 10° 15:20:32 10° 215° (SW) 4,258 10.4 58.5°
Maximum altitude 15:32:19 47° 146° (SE) 3,223 11.4 60.5°
Drops below altitude 10° 15:49:48 10° 81° (E) 6,180 11.5 63.4°
Sets 15:55:06 0° 77° (ENE) 7,264 11.7 64.2°
